Weather History for Camden, SC

Change the Weather History Date:

Wednesday, January 1, 2014

  Actual Average (KSSC) Record (KSSC)
Temperature  
Mean Temperature 42 °F -  
Max Temperature 50 °F 56 °F 71 °F (2005)
Min Temperature 33 °F 34 °F 17 °F (1998)
Degree Days  
Heating Degree Days 24    
Moisture  
Dew Point 36 °F    
Average Humidity 81    
Maximum Humidity 100    
Minimum Humidity 54    
Precipitation  
Precipitation 0.00 in - - ()
Sea Level Pressure  
Sea Level Pressure 30.32 in    
Wind  
Wind Speed 0 mph (ENE)    
Max Wind Speed 5 mph    
Max Gust Speed -    
Visibility 10 miles    
Events      
Averages and records for this station are not official NWS values.
T = Trace of Precipitation, MM = Missing Value Source: NWS Daily Summary

Daily Weather History Graph

Daily Weather History Graph

Search for Another Location

Airport:

Trip Planner

Search our weather history database for the weather conditions in past years. The results will help you decide how hot, cold, wet, or windy it might be!

Date:

Astronomy

Jan. 01, 2014 Rise Set
Actual Time 7:28 AM EST 5:23 PM EST
Civil Twilight 7:00 AM EST 5:51 PM EST
Nautical Twilight 6:29 AM EST 6:22 PM EST
Astronomical Twilight 5:58 AM EST 6:53 PM EST
Moon 7:20 AM EST (1/1) 6:03 PM EST (1/1)
Length of Visible Light 10h 50m
Length of Day
9h 55m
New Moon, 0% of the Moon is Illuminated
Jan 1
New Moon
Jan 7
First Quarter
Jan 15
Full
Jan 24
Last Quarter
Jan 30
New

Hourly Weather History & Observations

Time (EST) Temp. Windchill Dew Point Humidity Pressure Visibility Wind Dir Wind Speed Gust Speed Precip Events Conditions
12:15 AM 35.6 °F - 33.8 °F 93% 30.37 in 10.0 mi Calm Calm - 0.00 in   Clear
12:35 AM 33.8 °F - 33.8 °F 100% 30.38 in 9.0 mi Calm Calm - 0.00 in   Clear
12:55 AM 33.8 °F - 32.0 °F 93% 30.37 in 10.0 mi Calm Calm - 0.00 in   Clear
1:15 AM 33.8 °F - 32.0 °F 93% 30.37 in 10.0 mi Calm Calm - 0.00 in   Clear
1:35 AM 33.8 °F - 33.8 °F 100% 30.38 in 10.0 mi Calm Calm - 0.00 in   Clear
1:55 AM 33.8 °F - 33.8 °F 100% 30.38 in 10.0 mi Calm Calm - 0.00 in   Clear
2:15 AM 33.8 °F - 32.0 °F 93% 30.38 in 10.0 mi Calm Calm - 0.00 in   Clear
2:35 AM 33.8 °F - 32.0 °F 93% 30.38 in 10.0 mi Calm Calm - 0.00 in   Clear
2:55 AM 33.8 °F - 32.0 °F 93% 30.38 in 10.0 mi Calm Calm - 0.00 in   Clear
3:15 AM 33.8 °F - 32.0 °F 93% 30.37 in 10.0 mi Calm Calm - 0.00 in   Clear
3:35 AM 33.8 °F - 33.8 °F 100% 30.38 in 10.0 mi Calm Calm - 0.00 in   Clear
3:55 AM 35.6 °F - 33.8 °F 93% 30.37 in 10.0 mi Calm Calm - 0.00 in   Clear
4:15 AM 33.8 °F - 33.8 °F 100% 30.37 in 10.0 mi Calm Calm - 0.00 in   Clear
4:35 AM 33.8 °F - 33.8 °F 100% 30.37 in 8.0 mi Calm Calm - 0.00 in   Clear
4:55 AM 33.8 °F - 33.8 °F 100% 30.37 in 9.0 mi Calm Calm - 0.00 in   Clear
5:15 AM 33.8 °F - 33.8 °F 100% 30.36 in 9.0 mi Calm Calm - 0.00 in   Clear
5:35 AM 33.8 °F - 33.8 °F 100% 30.37 in 10.0 mi Calm Calm - 0.00 in   Clear
5:55 AM 33.8 °F - 33.8 °F 100% 30.36 in 10.0 mi Calm Calm - 0.00 in   Clear
6:15 AM 33.8 °F - 33.8 °F 100% 30.38 in 10.0 mi Calm Calm - 0.00 in   Clear
6:35 AM 35.6 °F - 33.8 °F 93% 30.38 in 10.0 mi Calm Calm - 0.00 in   Clear
6:55 AM 35.6 °F - 33.8 °F 93% 30.37 in 10.0 mi Calm Calm - 0.00 in   Clear
7:15 AM 35.6 °F - 33.8 °F 93% 30.39 in 10.0 mi Calm Calm - 0.00 in   Clear
7:35 AM 35.6 °F - 33.8 °F 93% 30.39 in 10.0 mi Calm Calm - 0.00 in   Clear
7:55 AM 35.6 °F - 33.8 °F 93% 30.40 in 9.0 mi Calm Calm - 0.00 in   Clear
8:15 AM 33.8 °F - 33.8 °F 100% 30.40 in 10.0 mi Calm Calm - 0.00 in   Clear
8:35 AM 35.6 °F - 33.8 °F 93% 30.40 in 10.0 mi Calm Calm - 0.00 in   Clear
8:55 AM 35.6 °F - 35.6 °F 100% 30.41 in 10.0 mi Calm Calm - 0.00 in   Clear
9:15 AM 37.4 °F - 35.6 °F 93% 30.39 in 10.0 mi Calm Calm - 0.00 in   Clear
9:35 AM 39.2 °F - 33.8 °F 81% 30.40 in 10.0 mi Calm Calm - 0.00 in   Clear
9:55 AM 39.2 °F - 35.6 °F 87% 30.41 in 10.0 mi Calm Calm - 0.00 in   Clear
10:15 AM 41.0 °F - 35.6 °F 81% 30.41 in 10.0 mi Calm Calm - 0.00 in   Clear
10:35 AM 42.8 °F - 35.6 °F 76% 30.41 in 10.0 mi Calm Calm - 0.00 in   Clear
10:55 AM 42.8 °F 40.1 °F 35.6 °F 76% 30.40 in 10.0 mi East 4.6 mph - 0.00 in   Clear
11:15 AM 44.6 °F - 35.6 °F 71% 30.38 in 10.0 mi Calm Calm - 0.00 in   Clear
11:35 AM 46.4 °F 45.2 °F 35.6 °F 66% 30.37 in 10.0 mi ENE 3.5 mph - 0.00 in   Clear
11:55 AM 46.4 °F - 33.8 °F 62% 30.38 in 10.0 mi Calm Calm - 0.00 in   Clear
12:15 PM 48.2 °F - 33.8 °F 58% 30.35 in 10.0 mi Calm Calm - 0.00 in   Clear
12:35 PM 48.2 °F - 33.8 °F 58% 30.35 in 10.0 mi Calm Calm - 0.00 in   Clear
12:55 PM 48.2 °F - 33.8 °F 58% 30.33 in 10.0 mi Calm Calm - 0.00 in   Clear
1:15 PM 48.2 °F - 33.8 °F 58% 30.33 in 10.0 mi ENE 3.5 mph - 0.00 in   Clear
1:35 PM 48.2 °F - 33.8 °F 58% 30.32 in 10.0 mi Calm Calm - 0.00 in   Clear
1:55 PM 48.2 °F - 32.0 °F 54% 30.31 in 10.0 mi Calm Calm - 0.00 in   Clear
2:15 PM 50.0 °F - 33.8 °F 54% 30.30 in 10.0 mi Calm Calm - 0.00 in   Clear
2:35 PM 50.0 °F - 33.8 °F 54% 30.30 in 10.0 mi Calm Calm - 0.00 in   Clear
2:55 PM 50.0 °F - 33.8 °F 54% 30.29 in 10.0 mi Calm Calm - 0.00 in   Clear
3:15 PM 50.0 °F - 33.8 °F 54% 30.28 in 10.0 mi Calm Calm - 0.00 in   Clear
3:35 PM 50.0 °F - 35.6 °F 58% 30.28 in 10.0 mi Calm Calm - 0.00 in   Clear
3:55 PM 50.0 °F - 35.6 °F 58% 30.28 in 10.0 mi Calm Calm - 0.00 in   Partly Cloudy
4:15 PM 50.0 °F - 35.6 °F 58% 30.28 in 10.0 mi Calm Calm - 0.00 in   Mostly Cloudy
4:35 PM 48.2 °F - 35.6 °F 62% 30.28 in 10.0 mi Calm Calm - 0.00 in   Overcast
4:55 PM 48.2 °F - 35.6 °F 62% 30.27 in 10.0 mi Calm Calm - 0.00 in   Mostly Cloudy
5:15 PM 48.2 °F - 37.4 °F 66% 30.27 in 10.0 mi Calm Calm - 0.00 in   Mostly Cloudy
5:35 PM 48.2 °F - 37.4 °F 66% 30.26 in 10.0 mi Calm Calm - 0.00 in   Mostly Cloudy
5:55 PM 46.4 °F - 37.4 °F 71% 30.26 in 10.0 mi Calm Calm - 0.00 in   Mostly Cloudy
6:15 PM 46.4 °F - 39.2 °F 76% 30.26 in 10.0 mi Calm Calm - 0.00 in   Mostly Cloudy
6:35 PM 46.4 °F - 37.4 °F 71% 30.26 in 10.0 mi Calm Calm - 0.00 in   Mostly Cloudy
6:55 PM 46.4 °F - 39.2 °F 76% 30.26 in 10.0 mi Calm Calm - 0.00 in   Mostly Cloudy
7:15 PM 46.4 °F - 39.2 °F 76% 30.25 in 10.0 mi Calm Calm - 0.00 in   Mostly Cloudy
7:35 PM 46.4 °F - 41.0 °F 81% 30.25 in 10.0 mi Calm Calm - 0.00 in   Overcast
7:55 PM 44.6 °F - 41.0 °F 87% 30.24 in 10.0 mi Calm Calm - 0.00 in   Overcast
8:15 PM 44.6 °F - 41.0 °F 87% 30.24 in 10.0 mi Calm Calm - 0.00 in   Overcast
8:35 PM 44.6 °F - 41.0 °F 87% 30.24 in 10.0 mi Calm Calm - 0.00 in   Overcast
8:55 PM 44.6 °F - 41.0 °F 87% 30.23 in 10.0 mi Calm Calm - 0.00 in   Mostly Cloudy
9:15 PM 44.6 °F - 39.2 °F 81% 30.22 in 10.0 mi Calm Calm - 0.00 in   Scattered Clouds
9:35 PM 44.6 °F - 39.2 °F 81% 30.22 in 10.0 mi Calm Calm - 0.00 in   Scattered Clouds
9:55 PM 44.6 °F - 39.2 °F 81% 30.22 in 10.0 mi Calm Calm - 0.00 in   Mostly Cloudy
10:15 PM 44.6 °F - 39.2 °F 81% 30.21 in 10.0 mi Calm Calm - 0.00 in   Overcast
10:35 PM 44.6 °F - 39.2 °F 81% 30.21 in 10.0 mi Calm Calm - 0.00 in   Overcast
10:55 PM 44.6 °F - 39.2 °F 81% 30.19 in 10.0 mi Calm Calm - 0.00 in   Overcast
11:15 PM 44.6 °F - 41.0 °F 87% 30.19 in 10.0 mi Calm Calm - 0.00 in   Overcast
11:35 PM 44.6 °F - 42.8 °F 93% 30.19 in 10.0 mi Calm Calm - 0.00 in   Overcast
11:55 PM 44.6 °F - 41.0 °F 87% 30.17 in 10.0 mi Calm Calm - 0.00 in   Overcast